Погода в Григорьевском

Россия / Пермский край     58°13′12″N   55°22′52″E
темп.,
°C
ветер,
м/с
пор.,
м/с
влажн.,
%
обл.,
%
осадки,
мм/ч
давл.,
гПа
погр.,
м
5 декабря, вс
вс523:000зюз4991100 2.8 1004808
02:00−1зюз3878100 0.0 1005609
05:00−3юз4986100 0.1 1006709
08:00−5юз3109130 0.1 1007512
11:00−6юз4119274 0.1 1009567
14:00−4зюз41085100 0.1 10111201
17:00−9з41381100 0.1 1013721
20:00−13з388413 0.0 1016511
6 декабря, пн
пн623:00−15з389054 0.0 1018438
02:00−17зсз279130 0.0 1020294
05:00−17зсз269234 0.0 1021244
08:00−18сз249237 0.0 1022190
11:00−18сз249052 0.0 1024217
14:00−17сз348579 0.0 1025309
17:00−18сз269219 0.0 1028275
20:00−19сз26955 0.0 1029199
7 декабря, вт
вт723:00−19сз24855 0.0 1031123
02:00−19зсз14865 0.0 1032118
05:00−19з159587 0.0 1033151
08:00−19зсз149815 0.0 1034118
11:00−18зсз12935 0.0 103581
14:00−14зсз12875 0.0 1036152
17:00−16зюз0098100 0.0 10379
20:00−17ююз119846 0.0 10379
8 декабря, ср
ср823:00−15юв1295100 0.0 103758
02:00−12юв2589100 0.0 1037158
05:00−11юв2786100 0.0 1036219
08:00−10юв41180100 0.0 1033328
11:00−9юв41389100 0.4 1032367
14:00−7ююв51594100 1.4 1029571
17:00−6ююв51395100 4.8 1026602
20:00−4ю51495100 3.4 1025602
9 декабря, чт
чт923:00−1ююз51493100 4.0 1025670
02:00−1ююз51393100 0.0 1026578
05:00−1ююз41394100 0.1 1027478
08:00−1ююз41294100 0.0 1027422
11:00−2ююз41394100 0.0 1028416
14:00−1ююз4129398 0.0 1028391
17:00−2ю31193100 0.0 1029345
20:00−3ю31093100 0.0 1029280